Hourly Data Report for October 28, 2014

All times are specified in Local Standard Time (LST). Add 1 hour to adjust for Daylight Saving Time where and when it is observed.

BATHURST A
NEW BRUNSWICK

47°37'47.000" N
65°44'20.000" W
58.80 m
8100505
71574
ZBF

Download Data

Hourly Data (October 2014)
Hourly Data Report for October 28, 2014
Temp Definition
°C
Dew Point Temp Definition
°C
Rel Hum Definition
%
Wind Dir Definition
10's deg

Wind Spd Definition
km/h
Visibility Definition
km
Stn Press Definition
kPa
Hmdx Definition


Wind Chill Definition


Weather Definition


TIME
00:00 Legend Double Dagger 5.2 1.5 77 31 21 24.1 100.16     LegendNANA
01:00 Legend Double Dagger 4.6 1.1 78 31 14 24.1 100.24     LegendNANA
02:00 Legend Double Dagger 4.0 0.9 80 31 14 24.1 100.34     Mainly Clear
03:00 Legend Double Dagger 3.7 0.9 82 31 8 24.1 100.47     LegendNANA
04:00 Legend Double Dagger 4.2 1.1 80 30 10 24.1 100.55     LegendNANA
05:00 Legend Double Dagger 4.7 1.0 77 31 9 24.1 100.69     Cloudy
06:00 Legend Double Dagger 4.7 1.2 78 30 7 24.1 100.77     LegendNANA
07:00 Legend Double Dagger 4.6 1.3 79 29 7 24.1 100.85     LegendNANA
08:00 Legend Double Dagger 4.8 1.3 78 32 7 24.1 100.94     Mostly Cloudy
09:00 Legend Double Dagger 6.1 1.6 73 32 4 24.1 101.02     LegendNANA
10:00 Legend Double Dagger 6.8 1.3 68 30 8 24.1 101.05     LegendNANA
11:00 Legend Double Dagger 7.4 1.5 66 3 10 24.1 101.06     Mostly Cloudy
12:00 Legend Double Dagger 8.3 1.5 62 14 4 24.1 101.05     LegendNANA
13:00 Legend Double Dagger 7.9 2.4 68 8 14 24.1 101.05     LegendNANA
14:00 Legend Double Dagger 7.6 1.9 67 5 10 24.1 101.08     Mostly Cloudy
15:00 Legend Double Dagger 7.5 2.2 69 4 10 24.1 101.08     LegendNANA
16:00 Legend Double Dagger 7.0 2.3 72 3 7 24.1 101.11     LegendNANA
17:00 Legend Double Dagger 6.3 2.2 75 4 5 24.1 101.11     Mostly Cloudy
18:00 Legend Double Dagger 4.9 2.6 85 36 2 24.1 101.13     LegendNANA
19:00 Legend Double Dagger 5.0 2.7 85 36 2 24.1 101.13     LegendNANA
20:00 Legend Double Dagger 5.2 2.7 84 12 6 24.1 101.13     Mostly Cloudy
21:00 Legend Double Dagger 4.9 2.9 87 16 7 24.1 101.16     LegendNANA
22:00 Legend Double Dagger 5.0 3.0 87 16 4 24.1 101.13     LegendNANA
23:00 Legend Double Dagger 5.0 2.9 86 18 9 24.1 101.11     Cloudy

Notes on Data Quality.

Legend

  • E = Estimated
  • M = Missing
  • NA = Not Available
  • ‡ = Partner data that is not subject to review by the National Climate Archives
Date modified: